owner,sensor,date,latitude,longitude,vertical_datum,sea_water_practical_salinity,qcFlag 
TABS,ioos:station:wmo:42051:1,2011-08-01T00:00:00Z,29.6350,-93.6417,2.0,30.6933,11111222 
TABS,ioos:station:wmo:42051:1,2011-08-01T00:30:00Z,29.6350,-93.6417,2.0,30.6335,11111222 
TABS,ioos:station:wmo:42051:1,2011-08-01T01:00:00Z,29.6350,-93.6417,2.0,30.6203,11111222 
TABS,ioos:station:wmo:42051:1,2011-08-01T01:30:00Z,29.6350,-93.6417,2.0,30.5949,11111222 
TABS,ioos:station:wmo:42051:1,2011-08-01T02:00:00Z,29.6350,-93.6417,2.0,30.6042,11111222 
TABS,ioos:station:wmo:42051:1,2011-08-01T02:30:00Z,29.6350,-93.6417,2.0,30.5803,11111222 
TABS,ioos:station:wmo:42051:1,2011-08-01T03:00:00Z,29.6350,-93.6417,2.0,30.5864,11111222 
TABS,ioos:station:wmo:42051:1,2011-08-01T03:30:00Z,29.6350,-93.6417,2.0,30.5723,11111222 
TABS,ioos:station:wmo:42051:1,2011-08-01T04:00:00Z,29.6350,-93.6417,2.0,30.5743,11111222 
TABS,ioos:station:wmo:42051:1,2011-08-01T04:30:00Z,29.6350,-93.6417,2.0,30.5787,11111222 
TABS,ioos:station:wmo:42051:1,2011-08-01T05:00:00Z,29.6350,-93.6417,2.0,30.5828,11111222 
TABS,ioos:station:wmo:42051:1,2011-08-01T05:30:00Z,29.6350,-93.6417,2.0,30.5786,11111222 
TABS,ioos:station:wmo:42051:1,2011-08-01T06:00:00Z,29.6350,-93.6417,2.0,30.5845,11111222 
TABS,ioos:station:wmo:42051:1,2011-08-01T06:30:00Z,29.6350,-93.6417,2.0,30.5962,11111222 
TABS,ioos:station:wmo:42051:1,2011-08-01T07:00:00Z,29.6350,-93.6417,2.0,30.6125,11111222 
TABS,ioos:station:wmo:42051:1,2011-08-01T07:30:00Z,29.6350,-93.6417,2.0,30.5989,11111222 
TABS,ioos:station:wmo:42051:1,2011-08-01T08:00:00Z,29.6350,-93.6417,2.0,30.5747,11111222 
TABS,ioos:station:wmo:42051:1,2011-08-01T08:30:00Z,29.6350,-93.6417,2.0,30.5597,11111222 
TABS,ioos:station:wmo:42051:1,2011-08-01T09:00:00Z,29.6350,-93.6417,2.0,30.5541,11111222 
TABS,ioos:station:wmo:42051:1,2011-08-01T09:30:00Z,29.6350,-93.6417,2.0,30.5366,11111222 
TABS,ioos:station:wmo:42051:1,2011-08-01T10:00:00Z,29.6350,-93.6417,2.0,30.5042,11111222 
TABS,ioos:station:wmo:42051:1,2011-08-01T10:30:00Z,29.6350,-93.6417,2.0,30.4737,11111222 
TABS,ioos:station:wmo:42051:1,2011-08-01T11:00:00Z,29.6350,-93.6417,2.0,30.4219,11111222 
TABS,ioos:station:wmo:42051:1,2011-08-01T11:30:00Z,29.6350,-93.6417,2.0,30.2667,11111222 
TABS,ioos:station:wmo:42051:1,2011-08-01T12:00:00Z,29.6350,-93.6417,2.0,30.0439,11111222 
TABS,ioos:station:wmo:42051:1,2011-08-01T12:30:00Z,29.6350,-93.6417,2.0,29.7847,11111222 
TABS,ioos:station:wmo:42051:1,2011-08-01T13:00:00Z,29.6350,-93.6417,2.0,29.0799,11111222 
TABS,ioos:station:wmo:42051:1,2011-08-01T13:30:00Z,29.6350,-93.6417,2.0,28.7376,11111222 
TABS,ioos:station:wmo:42051:1,2011-08-01T14:00:00Z,29.6350,-93.6417,2.0,28.2843,11111222 
TABS,ioos:station:wmo:42051:1,2011-08-01T14:30:00Z,29.6350,-93.6417,2.0,27.9918,11111222 
TABS,ioos:station:wmo:42051:1,2011-08-01T15:00:00Z,29.6350,-93.6417,2.0,27.5303,11111222 
TABS,ioos:station:wmo:42051:1,2011-08-01T15:30:00Z,29.6350,-93.6417,2.0,27.4278,11111222 
TABS,ioos:station:wmo:42051:1,2011-08-01T16:00:00Z,29.6350,-93.6417,2.0,26.296,11111222 
TABS,ioos:station:wmo:42051:1,2011-08-01T16:30:00Z,29.6350,-93.6417,2.0,26.4552,11111222 
TABS,ioos:station:wmo:42051:1,2011-08-01T17:00:00Z,29.6350,-93.6417,2.0,25.4652,11111222 
TABS,ioos:station:wmo:42051:1,2011-08-01T17:30:00Z,29.6350,-93.6417,2.0,26.7163,11111222 
TABS,ioos:station:wmo:42051:1,2011-08-01T18:00:00Z,29.6350,-93.6417,2.0,27.1323,11111222 
TABS,ioos:station:wmo:42051:1,2011-08-01T18:30:00Z,29.6350,-93.6417,2.0,27.7842,11111222 
TABS,ioos:station:wmo:42051:1,2011-08-01T19:00:00Z,29.6350,-93.6417,2.0,27.6078,11111222 
TABS,ioos:station:wmo:42051:1,2011-08-01T19:30:00Z,29.6350,-93.6417,2.0,27.7362,11111222 
TABS,ioos:station:wmo:42051:1,2011-08-01T20:00:00Z,29.6350,-93.6417,2.0,28.268,11111222 
TABS,ioos:station:wmo:42051:1,2011-08-01T20:30:00Z,29.6350,-93.6417,2.0,28.2453,11111222 
TABS,ioos:station:wmo:42051:1,2011-08-01T21:00:00Z,29.6350,-93.6417,2.0,28.537,11111222 
TABS,ioos:station:wmo:42051:1,2011-08-01T21:30:00Z,29.6350,-93.6417,2.0,28.4535,11111222 
TABS,ioos:station:wmo:42051:1,2011-08-01T22:00:00Z,29.6350,-93.6417,2.0,26.7567,11111222 
TABS,ioos:station:wmo:42051:1,2011-08-01T22:30:00Z,29.6350,-93.6417,2.0,26.6232,11111222 
TABS,ioos:station:wmo:42051:1,2011-08-01T23:00:00Z,29.6350,-93.6417,2.0,25.995,11111222 
TABS,ioos:station:wmo:42051:1,2011-08-01T23:30:00Z,29.6350,-93.6417,2.0,26.7293,11111222 
TABS,ioos:station:wmo:42051:1,2011-08-02T00:00:00Z,29.6350,-93.6417,2.0,27.7526,11111222 
TABS,ioos:station:wmo:42051:1,2011-08-02T00:30:00Z,29.6350,-93.6417,2.0,28.1819,11111222 
TABS,ioos:station:wmo:42051:1,2011-08-02T01:00:00Z,29.6350,-93.6417,2.0,28.5345,11111222 
TABS,ioos:station:wmo:42051:1,2011-08-02T01:30:00Z,29.6350,-93.6417,2.0,28.973,11111222 
TABS,ioos:station:wmo:42051:1,2011-08-02T02:00:00Z,29.6350,-93.6417,2.0,29.1689,11111222 
TABS,ioos:station:wmo:42051:1,2011-08-02T02:30:00Z,29.6350,-93.6417,2.0,29.3018,11111222 
TABS,ioos:station:wmo:42051:1,2011-08-02T03:00:00Z,29.6350,-93.6417,2.0,29.3842,11111222 
TABS,ioos:station:wmo:42051:1,2011-08-02T03:30:00Z,29.6350,-93.6417,2.0,29.5243,11111222 
TABS,ioos:station:wmo:42051:1,2011-08-02T04:00:00Z,29.6350,-93.6417,2.0,29.6075,11111222 
TABS,ioos:station:wmo:42051:1,2011-08-02T04:30:00Z,29.6350,-93.6417,2.0,29.6992,11111222 
TABS,ioos:station:wmo:42051:1,2011-08-02T05:00:00Z,29.6350,-93.6417,2.0,29.7615,11111222 
TABS,ioos:station:wmo:42051:1,2011-08-02T05:30:00Z,29.6350,-93.6417,2.0,29.8103,11111222 
TABS,ioos:station:wmo:42051:1,2011-08-02T06:00:00Z,29.6350,-93.6417,2.0,29.8692,11111222 
TABS,ioos:station:wmo:42051:1,2011-08-02T06:30:00Z,29.6350,-93.6417,2.0,29.9068,11111222 
TABS,ioos:station:wmo:42051:1,2011-08-02T07:00:00Z,29.6350,-93.6417,2.0,29.9587,11111222 
TABS,ioos:station:wmo:42051:1,2011-08-02T07:30:00Z,29.6350,-93.6417,2.0,29.9833,11111222 
TABS,ioos:station:wmo:42051:1,2011-08-02T08:00:00Z,29.6350,-93.6417,2.0,30.0371,11111222 
TABS,ioos:station:wmo:42051:1,2011-08-02T08:30:00Z,29.6350,-93.6417,2.0,30.0683,11111222 
TABS,ioos:station:wmo:42051:1,2011-08-02T09:00:00Z,29.6350,-93.6417,2.0,30.0801,11111222 
TABS,ioos:station:wmo:42051:1,2011-08-02T09:30:00Z,29.6350,-93.6417,2.0,30.0977,11111222 
TABS,ioos:station:wmo:42051:1,2011-08-02T10:00:00Z,29.6350,-93.6417,2.0,30.1241,11111222 
TABS,ioos:station:wmo:42051:1,2011-08-02T10:30:00Z,29.6350,-93.6417,2.0,30.135,11111222 
TABS,ioos:station:wmo:42051:1,2011-08-02T11:00:00Z,29.6350,-93.6417,2.0,30.1351,11111222 
TABS,ioos:station:wmo:42051:1,2011-08-02T11:30:00Z,29.6350,-93.6417,2.0,30.1552,11111222 
TABS,ioos:station:wmo:42051:1,2011-08-02T12:00:00Z,29.6350,-93.6417,2.0,30.1633,11111222 
TABS,ioos:station:wmo:42051:1,2011-08-02T12:30:00Z,29.6350,-93.6417,2.0,30.1969,11111222 
TABS,ioos:station:wmo:42051:1,2011-08-02T13:00:00Z,29.6350,-93.6417,2.0,30.1952,11111222 
TABS,ioos:station:wmo:42051:1,2011-08-02T13:30:00Z,29.6350,-93.6417,2.0,30.1923,11111222 
TABS,ioos:station:wmo:42051:1,2011-08-02T14:00:00Z,29.6350,-93.6417,2.0,30.2049,11111222 
TABS,ioos:station:wmo:42051:1,2011-08-02T14:30:00Z,29.6350,-93.6417,2.0,28.596,11111222 
TABS,ioos:station:wmo:42051:1,2011-08-02T15:00:00Z,29.6350,-93.6417,2.0,28.0216,11111222 
TABS,ioos:station:wmo:42051:1,2011-08-02T15:30:00Z,29.6350,-93.6417,2.0,27.942,11111222 
TABS,ioos:station:wmo:42051:1,2011-08-02T16:00:00Z,29.6350,-93.6417,2.0,27.4889,11111222 
TABS,ioos:station:wmo:42051:1,2011-08-02T16:30:00Z,29.6350,-93.6417,2.0,27.3654,11111222 
TABS,ioos:station:wmo:42051:1,2011-08-02T17:00:00Z,29.6350,-93.6417,2.0,27.2824,11111222 
TABS,ioos:station:wmo:42051:1,2011-08-02T17:30:00Z,29.6350,-93.6417,2.0,27.5946,11111222 
TABS,ioos:station:wmo:42051:1,2011-08-02T18:00:00Z,29.6350,-93.6417,2.0,27.5938,11111222 
TABS,ioos:station:wmo:42051:1,2011-08-02T18:30:00Z,29.6350,-93.6417,2.0,28.0021,11111222 
TABS,ioos:station:wmo:42051:1,2011-08-02T19:00:00Z,29.6350,-93.6417,2.0,27.9041,11111222 
TABS,ioos:station:wmo:42051:1,2011-08-02T19:30:00Z,29.6350,-93.6417,2.0,28.3748,11111222 
TABS,ioos:station:wmo:42051:1,2011-08-02T20:00:00Z,29.6350,-93.6417,2.0,27.4179,11111222 
TABS,ioos:station:wmo:42051:1,2011-08-02T20:30:00Z,29.6350,-93.6417,2.0,27.7905,11111222 
TABS,ioos:station:wmo:42051:1,2011-08-02T21:00:00Z,29.6350,-93.6417,2.0,27.5485,11111222 
TABS,ioos:station:wmo:42051:1,2011-08-02T21:30:00Z,29.6350,-93.6417,2.0,27.0395,11111222 
TABS,ioos:station:wmo:42051:1,2011-08-02T22:00:00Z,29.6350,-93.6417,2.0,26.9885,11111222 
TABS,ioos:station:wmo:42051:1,2011-08-02T22:30:00Z,29.6350,-93.6417,2.0,27.5835,11111222 
TABS,ioos:station:wmo:42051:1,2011-08-02T23:00:00Z,29.6350,-93.6417,2.0,27.0857,11111222 
TABS,ioos:station:wmo:42051:1,2011-08-02T23:30:00Z,29.6350,-93.6417,2.0,27.1928,11111222 
TABS,ioos:station:wmo:42051:1,2011-08-03T00:00:00Z,29.6350,-93.6417,2.0,27.2064,11111222 
TABS,ioos:station:wmo:42051:1,2011-08-03T00:30:00Z,29.6350,-93.6417,2.0,27.2037,11111222 
TABS,ioos:station:wmo:42051:1,2011-08-03T01:00:00Z,29.6350,-93.6417,2.0,27.4919,11111222 
TABS,ioos:station:wmo:42051:1,2011-08-03T01:30:00Z,29.6350,-93.6417,2.0,27.8382,11111222 
TABS,ioos:station:wmo:42051:1,2011-08-03T02:00:00Z,29.6350,-93.6417,2.0,28.1231,11111222 
TABS,ioos:station:wmo:42051:1,2011-08-03T02:30:00Z,29.6350,-93.6417,2.0,28.3559,11111222 
TABS,ioos:station:wmo:42051:1,2011-08-03T03:00:00Z,29.6350,-93.6417,2.0,28.6698,11111222 
TABS,ioos:station:wmo:42051:1,2011-08-03T03:30:00Z,29.6350,-93.6417,2.0,28.9613,11111222 
TABS,ioos:station:wmo:42051:1,2011-08-03T04:00:00Z,29.6350,-93.6417,2.0,29.2351,11111222 
TABS,ioos:station:wmo:42051:1,2011-08-03T04:30:00Z,29.6350,-93.6417,2.0,29.4588,11111222 
TABS,ioos:station:wmo:42051:1,2011-08-03T05:00:00Z,29.6350,-93.6417,2.0,29.5917,11111222 
TABS,ioos:station:wmo:42051:1,2011-08-03T05:30:00Z,29.6350,-93.6417,2.0,29.8167,11111222 
TABS,ioos:station:wmo:42051:1,2011-08-03T06:00:00Z,29.6350,-93.6417,2.0,29.9759,11111222 
TABS,ioos:station:wmo:42051:1,2011-08-03T06:30:00Z,29.6350,-93.6417,2.0,30.1902,11111222 
TABS,ioos:station:wmo:42051:1,2011-08-03T07:00:00Z,29.6350,-93.6417,2.0,30.3896,11111222 
TABS,ioos:station:wmo:42051:1,2011-08-03T07:30:00Z,29.6350,-93.6417,2.0,30.6109,11111222 
TABS,ioos:station:wmo:42051:1,2011-08-03T08:00:00Z,29.6350,-93.6417,2.0,30.7288,11111222 
TABS,ioos:station:wmo:42051:1,2011-08-03T08:30:00Z,29.6350,-93.6417,2.0,30.9002,11111222 
TABS,ioos:station:wmo:42051:1,2011-08-03T09:00:00Z,29.6350,-93.6417,2.0,31.1243,11111222 
TABS,ioos:station:wmo:42051:1,2011-08-03T09:30:00Z,29.6350,-93.6417,2.0,31.1717,11111222 
TABS,ioos:station:wmo:42051:1,2011-08-03T10:00:00Z,29.6350,-93.6417,2.0,31.1266,11111222 
TABS,ioos:station:wmo:42051:1,2011-08-03T10:30:00Z,29.6350,-93.6417,2.0,31.1139,11111222 
TABS,ioos:station:wmo:42051:1,2011-08-03T11:00:00Z,29.6350,-93.6417,2.0,31.1146,11111222 
TABS,ioos:station:wmo:42051:1,2011-08-03T11:30:00Z,29.6350,-93.6417,2.0,31.1142,11111222 
TABS,ioos:station:wmo:42051:1,2011-08-03T12:00:00Z,29.6350,-93.6417,2.0,31.137,11111222 
TABS,ioos:station:wmo:42051:1,2011-08-03T12:30:00Z,29.6350,-93.6417,2.0,31.1868,11111222 
TABS,ioos:station:wmo:42051:1,2011-08-03T13:00:00Z,29.6350,-93.6417,2.0,31.2497,11111222 
TABS,ioos:station:wmo:42051:1,2011-08-03T13:30:00Z,29.6350,-93.6417,2.0,31.365,11111222 
TABS,ioos:station:wmo:42051:1,2011-08-03T14:00:00Z,29.6350,-93.6417,2.0,31.4445,11111222 
TABS,ioos:station:wmo:42051:1,2011-08-03T14:30:00Z,29.6350,-93.6417,2.0,31.5033,11111222 
TABS,ioos:station:wmo:42051:1,2011-08-03T15:00:00Z,29.6350,-93.6417,2.0,31.537,11111222 
TABS,ioos:station:wmo:42051:1,2011-08-03T15:30:00Z,29.6350,-93.6417,2.0,31.5931,11111222 
TABS,ioos:station:wmo:42051:1,2011-08-03T16:00:00Z,29.6350,-93.6417,2.0,31.6324,11111222 
TABS,ioos:station:wmo:42051:1,2011-08-03T16:30:00Z,29.6350,-93.6417,2.0,31.6559,11111222 
TABS,ioos:station:wmo:42051:1,2011-08-03T17:00:00Z,29.6350,-93.6417,2.0,31.7222,11111222 
TABS,ioos:station:wmo:42051:1,2011-08-03T17:30:00Z,29.6350,-93.6417,2.0,31.7336,11111222 
TABS,ioos:station:wmo:42051:1,2011-08-03T18:00:00Z,29.6350,-93.6417,2.0,31.6826,11111222 
TABS,ioos:station:wmo:42051:1,2011-08-03T18:30:00Z,29.6350,-93.6417,2.0,31.6452,11111222 
TABS,ioos:station:wmo:42051:1,2011-08-03T19:00:00Z,29.6350,-93.6417,2.0,31.6503,11111222 
TABS,ioos:station:wmo:42051:1,2011-08-03T19:30:00Z,29.6350,-93.6417,2.0,31.6306,11111222 
TABS,ioos:station:wmo:42051:1,2011-08-03T20:00:00Z,29.6350,-93.6417,2.0,31.64,11111222 
TABS,ioos:station:wmo:42051:1,2011-08-03T20:30:00Z,29.6350,-93.6417,2.0,31.711,11111222 
TABS,ioos:station:wmo:42051:1,2011-08-03T21:00:00Z,29.6350,-93.6417,2.0,31.7075,11111222 
TABS,ioos:station:wmo:42051:1,2011-08-03T21:30:00Z,29.6350,-93.6417,2.0,31.6708,11111222 
TABS,ioos:station:wmo:42051:1,2011-08-03T22:00:00Z,29.6350,-93.6417,2.0,31.6543,11111222 
TABS,ioos:station:wmo:42051:1,2011-08-03T22:30:00Z,29.6350,-93.6417,2.0,31.6638,11111222 
TABS,ioos:station:wmo:42051:1,2011-08-03T23:00:00Z,29.6350,-93.6417,2.0,31.6833,11111222 
TABS,ioos:station:wmo:42051:1,2011-08-03T23:30:00Z,29.6350,-93.6417,2.0,31.6872,11111222 
TABS,ioos:station:wmo:42051:1,2011-08-04T00:00:00Z,29.6350,-93.6417,2.0,31.6865,11111222 
TABS,ioos:station:wmo:42051:1,2011-08-04T00:30:00Z,29.6350,-93.6417,2.0,31.6819,11111222 
TABS,ioos:station:wmo:42051:1,2011-08-04T01:00:00Z,29.6350,-93.6417,2.0,31.6847,11111222 
TABS,ioos:station:wmo:42051:1,2011-08-04T01:30:00Z,29.6350,-93.6417,2.0,31.6735,11111222 
TABS,ioos:station:wmo:42051:1,2011-08-04T02:00:00Z,29.6350,-93.6417,2.0,31.6725,11111222 
TABS,ioos:station:wmo:42051:1,2011-08-04T02:30:00Z,29.6350,-93.6417,2.0,31.6864,11111222 
TABS,ioos:station:wmo:42051:1,2011-08-04T03:00:00Z,29.6350,-93.6417,2.0,31.7337,11111222 
TABS,ioos:station:wmo:42051:1,2011-08-04T03:30:00Z,29.6350,-93.6417,2.0,31.8143,11111222 
TABS,ioos:station:wmo:42051:1,2011-08-04T04:00:00Z,29.6350,-93.6417,2.0,31.8963,11111222 
TABS,ioos:station:wmo:42051:1,2011-08-04T04:30:00Z,29.6350,-93.6417,2.0,31.9205,11111222 
TABS,ioos:station:wmo:42051:1,2011-08-04T05:00:00Z,29.6350,-93.6417,2.0,31.9759,11111222 
TABS,ioos:station:wmo:42051:1,2011-08-04T05:30:00Z,29.6350,-93.6417,2.0,32.0198,11111222 
TABS,ioos:station:wmo:42051:1,2011-08-04T06:00:00Z,29.6350,-93.6417,2.0,32.0492,11111222 
TABS,ioos:station:wmo:42051:1,2011-08-04T06:30:00Z,29.6350,-93.6417,2.0,32.0873,11111222 
TABS,ioos:station:wmo:42051:1,2011-08-04T07:00:00Z,29.6350,-93.6417,2.0,32.1512,11111222 
TABS,ioos:station:wmo:42051:1,2011-08-04T07:30:00Z,29.6350,-93.6417,2.0,32.2112,11111222 
TABS,ioos:station:wmo:42051:1,2011-08-04T08:00:00Z,29.6350,-93.6417,2.0,32.2829,11111222 
TABS,ioos:station:wmo:42051:1,2011-08-04T08:30:00Z,29.6350,-93.6417,2.0,32.3408,11111222 
TABS,ioos:station:wmo:42051:1,2011-08-04T09:00:00Z,29.6350,-93.6417,2.0,32.3732,11111222 
TABS,ioos:station:wmo:42051:1,2011-08-04T09:30:00Z,29.6350,-93.6417,2.0,32.3927,11111222 
TABS,ioos:station:wmo:42051:1,2011-08-04T10:00:00Z,29.6350,-93.6417,2.0,32.4266,11111222 
TABS,ioos:station:wmo:42051:1,2011-08-04T10:30:00Z,29.6350,-93.6417,2.0,32.4891,11111222 
TABS,ioos:station:wmo:42051:1,2011-08-04T11:00:00Z,29.6350,-93.6417,2.0,32.5518,11111222 
TABS,ioos:station:wmo:42051:1,2011-08-04T11:30:00Z,29.6350,-93.6417,2.0,32.5903,11111222 
TABS,ioos:station:wmo:42051:1,2011-08-04T12:00:00Z,29.6350,-93.6417,2.0,32.6775,11111222 
TABS,ioos:station:wmo:42051:1,2011-08-04T12:30:00Z,29.6350,-93.6417,2.0,32.7655,11111222 
TABS,ioos:station:wmo:42051:1,2011-08-04T13:00:00Z,29.6350,-93.6417,2.0,32.8374,11111222 
TABS,ioos:station:wmo:42051:1,2011-08-04T13:30:00Z,29.6350,-93.6417,2.0,32.8711,11111222 
TABS,ioos:station:wmo:42051:1,2011-08-04T14:00:00Z,29.6350,-93.6417,2.0,32.8765,11111222 
TABS,ioos:station:wmo:42051:1,2011-08-04T14:30:00Z,29.6350,-93.6417,2.0,32.8798,11111222 
TABS,ioos:station:wmo:42051:1,2011-08-04T15:00:00Z,29.6350,-93.6417,2.0,32.8836,11111222 
TABS,ioos:station:wmo:42051:1,2011-08-04T15:30:00Z,29.6350,-93.6417,2.0,32.9123,11111222 
TABS,ioos:station:wmo:42051:1,2011-08-04T16:00:00Z,29.6350,-93.6417,2.0,32.8988,11111222 
TABS,ioos:station:wmo:42051:1,2011-08-04T16:30:00Z,29.6350,-93.6417,2.0,32.9163,11111222 
TABS,ioos:station:wmo:42051:1,2011-08-04T17:00:00Z,29.6350,-93.6417,2.0,32.9119,11111222 
TABS,ioos:station:wmo:42051:1,2011-08-04T17:30:00Z,29.6350,-93.6417,2.0,32.9607,11111222 
TABS,ioos:station:wmo:42051:1,2011-08-04T18:00:00Z,29.6350,-93.6417,2.0,32.9659,11111222 
TABS,ioos:station:wmo:42051:1,2011-08-04T18:30:00Z,29.6350,-93.6417,2.0,32.9565,11111222 
TABS,ioos:station:wmo:42051:1,2011-08-04T19:00:00Z,29.6350,-93.6417,2.0,33.0151,11111222 
TABS,ioos:station:wmo:42051:1,2011-08-04T19:30:00Z,29.6350,-93.6417,2.0,32.974,11111222 
TABS,ioos:station:wmo:42051:1,2011-08-04T20:00:00Z,29.6350,-93.6417,2.0,33.1192,11111222 
TABS,ioos:station:wmo:42051:1,2011-08-04T20:30:00Z,29.6350,-93.6417,2.0,33.0175,11111222 
TABS,ioos:station:wmo:42051:1,2011-08-04T21:00:00Z,29.6350,-93.6417,2.0,33.0437,11111222 
TABS,ioos:station:wmo:42051:1,2011-08-04T21:30:00Z,29.6350,-93.6417,2.0,33.0494,11111222 
TABS,ioos:station:wmo:42051:1,2011-08-04T22:00:00Z,29.6350,-93.6417,2.0,33.0535,11111222 
TABS,ioos:station:wmo:42051:1,2011-08-04T22:30:00Z,29.6350,-93.6417,2.0,33.0623,11111222 
TABS,ioos:station:wmo:42051:1,2011-08-04T23:00:00Z,29.6350,-93.6417,2.0,33.0942,11111222 
TABS,ioos:station:wmo:42051:1,2011-08-04T23:30:00Z,29.6350,-93.6417,2.0,33.0554,11111222 
TABS,ioos:station:wmo:42051:1,2011-08-05T00:00:00Z,29.6350,-93.6417,2.0,33.0637,11111222 
TABS,ioos:station:wmo:42051:1,2011-08-05T00:30:00Z,29.6350,-93.6417,2.0,33.0463,11111222 
TABS,ioos:station:wmo:42051:1,2011-08-05T01:00:00Z,29.6350,-93.6417,2.0,33.054,11111222 
TABS,ioos:station:wmo:42051:1,2011-08-05T01:30:00Z,29.6350,-93.6417,2.0,33.0507,11111222 
TABS,ioos:station:wmo:42051:1,2011-08-05T02:00:00Z,29.6350,-93.6417,2.0,33.0373,11111222 
TABS,ioos:station:wmo:42051:1,2011-08-05T02:30:00Z,29.6350,-93.6417,2.0,33.0356,11111222 
TABS,ioos:station:wmo:42051:1,2011-08-05T03:00:00Z,29.6350,-93.6417,2.0,33.0509,11111222 
TABS,ioos:station:wmo:42051:1,2011-08-05T03:30:00Z,29.6350,-93.6417,2.0,33.0513,11111222 
TABS,ioos:station:wmo:42051:1,2011-08-05T04:00:00Z,29.6350,-93.6417,2.0,33.057,11111222 
TABS,ioos:station:wmo:42051:1,2011-08-05T04:30:00Z,29.6350,-93.6417,2.0,33.0806,11111222 
TABS,ioos:station:wmo:42051:1,2011-08-05T05:00:00Z,29.6350,-93.6417,2.0,33.0282,11111222 
TABS,ioos:station:wmo:42051:1,2011-08-05T05:30:00Z,29.6350,-93.6417,2.0,33.047,11111222 
TABS,ioos:station:wmo:42051:1,2011-08-05T06:00:00Z,29.6350,-93.6417,2.0,33.0542,11111222 
TABS,ioos:station:wmo:42051:1,2011-08-05T06:30:00Z,29.6350,-93.6417,2.0,33.0434,11111222 
TABS,ioos:station:wmo:42051:1,2011-08-05T07:00:00Z,29.6350,-93.6417,2.0,32.8672,11111222 
TABS,ioos:station:wmo:42051:1,2011-08-05T07:30:00Z,29.6350,-93.6417,2.0,32.8944,11111222 
TABS,ioos:station:wmo:42051:1,2011-08-05T08:00:00Z,29.6350,-93.6417,2.0,32.9114,11111222 
TABS,ioos:station:wmo:42051:1,2011-08-05T08:30:00Z,29.6350,-93.6417,2.0,32.9093,11111222 
TABS,ioos:station:wmo:42051:1,2011-08-05T09:00:00Z,29.6350,-93.6417,2.0,32.7629,11111222 
TABS,ioos:station:wmo:42051:1,2011-08-05T09:30:00Z,29.6350,-93.6417,2.0,32.7357,11111222 
TABS,ioos:station:wmo:42051:1,2011-08-05T10:00:00Z,29.6350,-93.6417,2.0,32.6027,11111222 
TABS,ioos:station:wmo:42051:1,2011-08-05T10:30:00Z,29.6350,-93.6417,2.0,32.5651,11111222 
TABS,ioos:station:wmo:42051:1,2011-08-05T11:00:00Z,29.6350,-93.6417,2.0,32.466,11111222 
TABS,ioos:station:wmo:42051:1,2011-08-05T11:30:00Z,29.6350,-93.6417,2.0,32.4654,11111222 
TABS,ioos:station:wmo:42051:1,2011-08-05T12:00:00Z,29.6350,-93.6417,2.0,32.4714,11111222 
TABS,ioos:station:wmo:42051:1,2011-08-05T12:30:00Z,29.6350,-93.6417,2.0,32.4887,11111222 
TABS,ioos:station:wmo:42051:1,2011-08-05T13:00:00Z,29.6350,-93.6417,2.0,32.4761,11111222 
TABS,ioos:station:wmo:42051:1,2011-08-05T13:30:00Z,29.6350,-93.6417,2.0,32.4835,11111222 
TABS,ioos:station:wmo:42051:1,2011-08-05T14:00:00Z,29.6350,-93.6417,2.0,32.5421,11111222 
TABS,ioos:station:wmo:42051:1,2011-08-05T14:30:00Z,29.6350,-93.6417,2.0,32.5471,11111222 
TABS,ioos:station:wmo:42051:1,2011-08-05T15:00:00Z,29.6350,-93.6417,2.0,32.5642,11111222 
TABS,ioos:station:wmo:42051:1,2011-08-05T15:30:00Z,29.6350,-93.6417,2.0,32.6417,11111222 
TABS,ioos:station:wmo:42051:1,2011-08-05T16:00:00Z,29.6350,-93.6417,2.0,32.7005,11111222 
TABS,ioos:station:wmo:42051:1,2011-08-05T16:30:00Z,29.6350,-93.6417,2.0,32.7052,11111222 
TABS,ioos:station:wmo:42051:1,2011-08-05T17:00:00Z,29.6350,-93.6417,2.0,32.7264,11111222 
TABS,ioos:station:wmo:42051:1,2011-08-05T17:30:00Z,29.6350,-93.6417,2.0,32.7055,11111222 
TABS,ioos:station:wmo:42051:1,2011-08-05T18:00:00Z,29.6350,-93.6417,2.0,32.7644,11111222 
TABS,ioos:station:wmo:42051:1,2011-08-05T18:30:00Z,29.6350,-93.6417,2.0,32.7908,11111222 
TABS,ioos:station:wmo:42051:1,2011-08-05T19:00:00Z,29.6350,-93.6417,2.0,32.84,11111222 
TABS,ioos:station:wmo:42051:1,2011-08-05T19:30:00Z,29.6350,-93.6417,2.0,32.8902,11111222 
TABS,ioos:station:wmo:42051:1,2011-08-05T20:00:00Z,29.6350,-93.6417,2.0,32.9186,11111222 
TABS,ioos:station:wmo:42051:1,2011-08-05T20:30:00Z,29.6350,-93.6417,2.0,32.913,11111222 
TABS,ioos:station:wmo:42051:1,2011-08-05T21:00:00Z,29.6350,-93.6417,2.0,32.919,11111222 
TABS,ioos:station:wmo:42051:1,2011-08-05T21:30:00Z,29.6350,-93.6417,2.0,32.9079,11111222 
TABS,ioos:station:wmo:42051:1,2011-08-05T22:00:00Z,29.6350,-93.6417,2.0,32.9258,11111222 
TABS,ioos:station:wmo:42051:1,2011-08-05T22:30:00Z,29.6350,-93.6417,2.0,32.919,11111222 
TABS,ioos:station:wmo:42051:1,2011-08-05T23:00:00Z,29.6350,-93.6417,2.0,32.9269,11111222 
TABS,ioos:station:wmo:42051:1,2011-08-05T23:30:00Z,29.6350,-93.6417,2.0,32.9253,11111222 
TABS,ioos:station:wmo:42051:1,2011-08-06T00:00:00Z,29.6350,-93.6417,2.0,32.936,11111222 
TABS,ioos:station:wmo:42051:1,2011-08-06T00:30:00Z,29.6350,-93.6417,2.0,32.9515,11111222 
TABS,ioos:station:wmo:42051:1,2011-08-06T01:00:00Z,29.6350,-93.6417,2.0,32.9638,11111222 
TABS,ioos:station:wmo:42051:1,2011-08-06T01:30:00Z,29.6350,-93.6417,2.0,33.0163,11111222 
TABS,ioos:station:wmo:42051:1,2011-08-06T02:00:00Z,29.6350,-93.6417,2.0,33.0358,11111222 
TABS,ioos:station:wmo:42051:1,2011-08-06T02:30:00Z,29.6350,-93.6417,2.0,33.0866,11111222 
TABS,ioos:station:wmo:42051:1,2011-08-06T03:00:00Z,29.6350,-93.6417,2.0,33.1001,11111222 
TABS,ioos:station:wmo:42051:1,2011-08-06T03:30:00Z,29.6350,-93.6417,2.0,33.1574,11111222 
TABS,ioos:station:wmo:42051:1,2011-08-06T04:00:00Z,29.6350,-93.6417,2.0,33.1678,11111222 
TABS,ioos:station:wmo:42051:1,2011-08-06T04:30:00Z,29.6350,-93.6417,2.0,33.1748,11111222 
TABS,ioos:station:wmo:42051:1,2011-08-06T05:00:00Z,29.6350,-93.6417,2.0,33.1814,11111222 
TABS,ioos:station:wmo:42051:1,2011-08-06T05:30:00Z,29.6350,-93.6417,2.0,33.1795,11111222 
TABS,ioos:station:wmo:42051:1,2011-08-06T06:00:00Z,29.6350,-93.6417,2.0,33.185,11111222 
TABS,ioos:station:wmo:42051:1,2011-08-06T06:30:00Z,29.6350,-93.6417,2.0,33.1875,11111222 
TABS,ioos:station:wmo:42051:1,2011-08-06T07:00:00Z,29.6350,-93.6417,2.0,33.2067,11111222 
TABS,ioos:station:wmo:42051:1,2011-08-06T07:30:00Z,29.6350,-93.6417,2.0,33.1993,11111222 
TABS,ioos:station:wmo:42051:1,2011-08-06T08:00:00Z,29.6350,-93.6417,2.0,33.1988,11111222 
TABS,ioos:station:wmo:42051:1,2011-08-06T08:30:00Z,29.6350,-93.6417,2.0,33.1996,11111222 
TABS,ioos:station:wmo:42051:1,2011-08-06T09:00:00Z,29.6350,-93.6417,2.0,33.1722,11111222 
TABS,ioos:station:wmo:42051:1,2011-08-06T09:30:00Z,29.6350,-93.6417,2.0,33.1759,11111222 
TABS,ioos:station:wmo:42051:1,2011-08-06T10:00:00Z,29.6350,-93.6417,2.0,33.1725,11111222 
TABS,ioos:station:wmo:42051:1,2011-08-06T10:30:00Z,29.6350,-93.6417,2.0,33.177,11111222 
TABS,ioos:station:wmo:42051:1,2011-08-06T11:00:00Z,29.6350,-93.6417,2.0,33.1751,11111222 
TABS,ioos:station:wmo:42051:1,2011-08-06T11:30:00Z,29.6350,-93.6417,2.0,33.1718,11111222 
TABS,ioos:station:wmo:42051:1,2011-08-06T12:00:00Z,29.6350,-93.6417,2.0,33.1699,11111222 